This is the latest recevied weather packets stored in our database for station/object KF0JHJ. If no packets are shown the sender has not sent any weather packets the latest 10 day(s).
| Time | Temp. | Humidity | Pressure | Rain* | Wind** | Luminosity | Snow |
|---|---|---|---|---|---|---|---|
| 1778099370 | 8.33° C | 49% | 1014.1 hPa | - | - | 254 W/m² | - |
| 1778099067 | 7.78° C | 50% | 1014.2 hPa | - | - | 267 W/m² | - |
| 1778098763 | 7.78° C | 49% | 1014.1 hPa | - | - | 283 W/m² | - |
| 1778098461 | 7.78° C | 49% | 1014.1 hPa | - | - | 213 W/m² | - |
| 1778098157 | 8.33° C | 48% | 1014.3 hPa | - | - | 259 W/m² | - |
| 1778097853 | 7.78° C | 53% | 1014.3 hPa | - | - | 279 W/m² | - |
| 1778097550 | 7.78° C | 51% | 1014.3 hPa | - | - | 268 W/m² | - |
| 1778097248 | 7.78° C | 52% | 1014.3 hPa | - | - | 235 W/m² | - |
| 1778096944 | 7.22° C | 53% | 1014.4 hPa | - | - | 325 W/m² | - |
| 1778096641 | 7.22° C | 52% | 1014.5 hPa | - | - | 251 W/m² | - |
| 1778096338 | 7.22° C | 52% | 1014.4 hPa | - | - | 259 W/m² | - |
| 1778096035 | 6.67° C | 52% | 1014.5 hPa | - | - | 295 W/m² | - |
| 1778095731 | 6.67° C | 52% | 1014.5 hPa | - | - | 228 W/m² | - |
| 1778095428 | 6.67° C | 54% | 1014.5 hPa | - | - | 225 W/m² | - |
| 1778095125 | 6.67° C | 54% | 1014.6 hPa | - | - | 229 W/m² | - |
| 1778094821 | 6.67° C | 56% | 1014.6 hPa | - | - | 215 W/m² | - |
| 1778094518 | 6.67° C | 57% | 1014.4 hPa | - | - | 224 W/m² | - |
| 1778094214 | 6.67° C | 55% | 1014.4 hPa | - | - | 197 W/m² | - |
| 1778093911 | 6.67° C | 57% | 1014.4 hPa | - | - | 217 W/m² | - |
| 1778093608 | 6.67° C | 56% | 1014.3 hPa | - | - | 199 W/m² | - |
| 1778093305 | 6.11° C | 54% | 1014.5 hPa | - | - | 194 W/m² | - |
| 1778093002 | 6.11° C | 53% | 1014.3 hPa | - | - | 184 W/m² | - |
| 1778092700 | 6.67° C | 56% | 1014.5 hPa | - | - | 198 W/m² | - |
| 1778092395 | 6.11° C | 57% | 1014.6 hPa | - | - | 184 W/m² | - |
| 1778092092 | 6.11° C | 54% | 1014.8 hPa | - | - | 190 W/m² | - |
* Rain since midnight (hover to see other rain measurements)
** Current wind speed in m/s (hover to see current wind gust speed)